{"data":{"norad_id":69074,"intl_designator":"2026-104B","name":"QIANFAN-128","alt_names":[],"object_type":"PAYLOAD","status":"ACTIVE","operator":null,"country":"PRC","launch_date":"2026-05-12","launch_site_code":"TAISC","launch_vehicle":null,"mission":null,"orbit_class":"UNKNOWN","rcs_meters":null,"size_class":null,"mass_kg":null,"dimensions":null,"purposes":[],"wikipedia_slug":null,"has_3d_model":false,"image_url":null,"decayed_at":null,"tle_current":{"epoch":"2026-05-25T03:16:40.778112Z","epoch_age_seconds":66397,"freshness":"FRESH","line1":"1 69074U 26104B   26145.13658308  .00000080  00000+0  32181-4 0  9997","line2":"2 69074  88.9869 344.2580 0003250 160.4710 199.6604 14.18043170  1815","mean_motion":14.1804317,"eccentricity":0.000325,"inclination_deg":88.9869,"raan_deg":344.258,"arg_perigee_deg":160.471,"mean_anomaly_deg":199.6604,"bstar":3.2181e-5,"rev_number":181,"period_min":101.54838939071,"perigee_km":829.63495621197,"apogee_km":834.32153112036,"semimajor_km":7210.1152436662,"source":"CELESTRAK","updated_at":"2026-05-25T13:38:09.049017Z"}}}